Date String (YYYY-MM-DD hh:mm:ss) UTC,Instrument flags,absolute air pressure of the measurement (hPa),sample flow rate (lpm),inlet stack bypass flow (lpm),air temperature of the measurement (°C),ambient temperature measured by the external sensor (°C),aerosol sample conditioner tube jacket temperature (°C),OPC LED temperature (°C),internal box temperature (°C),relative humidity of the measurement (%),span deviation,mass concentration of particles derived from Lorenz-Mie calculation of OPC scattering (μg/m³),mass concentration of particles derived from Lorenz-Mie calculation of OPC scattering (μg/m³),mass concentration of particles derived from Lorenz-Mie calculation of OPC scattering (μg/m³)
DateTimeUTC,F1_M11,P_M11,Q1_M11,Q2_M11,T1_M11,T2_M11,T3_M11,T4_M11,T5_M11,U1_M11,ZSPAN_M11,X2_M11,X0_M11,X1_M11
2024-01-20 20:00:00,SystemResetWarning,0825.4,5.00,000.00,018.8,018.1,000.0,027.2,020.0,15.6,0001.0,0015.48,0023.83,0014.62
2024-01-20 20:01:00,SystemResetWarning,0825.4,5.00,000.00,018.8,018.1,000.0,027.1,020.0,15.5,0001.2,0015.43,0023.86,0014.57
2024-01-20 20:02:00,SystemResetWarning,0825.3,5.00,000.00,018.8,018.1,000.0,027.1,020.0,15.6,0001.1,0015.44,0024.09,0014.54
2024-01-20 20:03:00,SystemResetWarning,0825.3,5.00,000.00,018.8,018.1,000.0,027.1,020.0,15.5,0001.5,0015.43,0024.12,0014.54
2024-01-20 20:04:00,SystemResetWarning,0825.3,5.00,000.00,018.8,018.1,000.0,027.1,020.0,15.5,0001.8,0015.40,0024.54,0014.55
2024-01-20 20:05:00,SystemResetWarning,0825.3,5.00,000.00,018.8,018.1,000.0,027.1,020.0,15.6,0001.8,0015.44,0024.68,0014.59
2024-01-20 20:06:00,SystemResetWarning,0825.3,4.99,000.00,018.8,018.1,000.0,027.1,020.0,15.4,0001.5,0015.48,0024.78,0014.67
2024-01-20 20:07:00,SystemResetWarning,0825.2,5.00,000.00,018.8,018.1,000.0,027.1,020.0,15.4,0001.3,0015.53,0024.91,0014.74
2024-01-20 20:08:00,SystemResetWarning,0825.2,5.00,000.00,018.8,018.1,000.0,027.1,020.0,15.4,0001.2,0015.52,0025.10,0014.76
2024-01-20 20:09:00,SystemResetWarning,0825.2,5.00,000.00,018.8,018.1,000.0,027.1,020.0,15.4,0001.3,0015.50,0024.84,0014.74
2024-01-20 20:10:00,SystemResetWarning,0825.2,5.00,000.00,018.8,018.1,000.0,027.2,020.0,15.4,0001.2,0015.49,0023.84,0014.72
2024-01-20 20:11:00,SystemResetWarning,0825.2,5.00,000.00,018.8,018.1,000.0,027.2,020.0,15.3,0001.0,0015.52,0023.67,0014.74
2024-01-20 20:12:00,SystemResetWarning,0825.1,5.00,000.00,018.8,018.0,000.0,027.2,020.0,15.3,0001.3,0015.50,0023.60,0014.74
2024-01-20 20:13:00,SystemResetWarning,0825.1,5.00,000.00,018.8,018.0,000.0,027.2,020.0,15.3,0002.0,0015.52,0024.03,0014.74
2024-01-20 20:14:00,SystemResetWarning,0825.1,5.00,000.00,018.8,018.0,000.0,027.2,020.0,15.4,0001.9,0015.54,0024.13,0014.74
2024-01-20 20:15:00,SystemResetWarning,0825.1,5.01,000.00,018.8,018.0,000.0,027.2,020.0,15.4,0001.5,0015.57,0024.00,0014.74
2024-01-20 20:16:00,SystemResetWarning,0825.2,5.00,000.00,018.8,018.0,000.0,027.2,020.0,15.4,0001.2,0015.56,0024.03,0014.74
2024-01-20 20:17:00,SystemResetWarning,0825.2,4.99,000.00,018.8,018.0,000.0,027.2,020.0,15.4,0001.7,0015.59,0024.31,0014.78
2024-01-20 20:18:00,SystemResetWarning,0825.2,5.00,000.00,018.8,018.0,000.0,027.2,020.0,15.4,0001.9,0015.64,0024.97,0014.82
2024-01-20 20:19:00,SystemResetWarning,0825.2,5.01,000.00,018.8,018.0,000.0,027.2,020.0,15.4,0001.8,0015.71,0025.16,0014.86
2024-01-20 20:20:00,SystemResetWarning,0825.2,4.99,000.00,018.8,018.0,000.0,027.2,020.0,15.4,0001.7,0015.78,0024.93,0014.92
2024-01-20 20:21:00,SystemResetWarning,0825.1,5.01,000.00,018.8,018.0,000.0,027.2,020.0,15.4,0001.6,0015.81,0024.78,0014.97
2024-01-20 20:22:00,SystemResetWarning,0825.1,5.00,000.00,018.8,018.1,000.0,027.2,020.0,15.6,0001.7,0015.89,0025.32,0015.02
2024-01-20 20:23:00,SystemResetWarning,0825.1,5.01,000.00,018.8,018.1,000.0,027.2,020.0,15.4,0002.1,0015.97,0025.46,0015.06
2024-01-20 20:24:00,SystemResetWarning,0825.1,4.99,000.00,018.8,018.1,000.0,027.2,020.0,15.2,0001.8,0016.00,0025.02,0015.10
2024-01-20 20:25:00,SystemResetWarning,0825.0,5.00,000.00,018.8,018.0,000.0,027.2,020.0,15.3,0001.6,0016.00,0024.72,0015.12
2024-01-20 20:26:00,SystemResetWarning,0825.0,5.00,000.00,018.8,018.0,000.0,027.2,020.0,15.4,0001.9,0016.01,0024.40,0015.14
2024-01-20 20:27:00,SystemResetWarning,0825.0,4.99,000.00,018.8,018.0,000.0,027.2,020.0,15.4,0002.0,0016.06,0024.22,0015.14
2024-01-20 20:28:00,SystemResetWarning,0825.1,5.01,000.00,018.8,018.0,000.0,027.2,020.0,15.4,0001.8,0016.04,0023.25,0015.10
2024-01-20 20:29:00,SystemResetWarning,0825.0,5.01,000.00,018.8,018.0,000.0,027.2,020.0,15.4,0001.8,0016.00,0022.15,0015.05
2024-01-20 20:30:00,SystemResetWarning,0825.1,5.00,000.00,018.8,018.0,000.0,027.2,020.0,15.4,0002.1,0016.02,0022.03,0015.05
2024-01-20 20:31:00,SystemResetWarning,0825.1,5.00,000.00,018.8,018.0,000.0,027.2,020.0,15.4,0002.0,0015.99,0021.94,0015.06
2024-01-20 20:32:00,SystemResetWarning,0825.1,5.00,000.00,018.8,018.1,000.0,027.2,020.0,15.6,0002.2,0016.00,0022.73,0015.07
2024-01-20 20:33:00,SystemResetWarning,0825.0,5.00,000.00,018.8,018.1,000.0,027.2,020.0,15.7,0002.2,0015.97,0022.39,0015.06
2024-01-20 20:34:00,SystemResetWarning,0824.9,5.01,000.00,018.8,018.1,000.0,027.2,020.0,15.6,0001.9,0015.98,0023.36,0015.08
2024-01-20 20:35:00,SystemResetWarning,0825.0,5.01,000.00,018.8,018.1,000.0,027.2,020.0,15.7,0001.8,0016.01,0023.91,0015.09
2024-01-20 20:36:00,SystemResetWarning,0825.0,5.01,000.00,018.8,018.0,000.0,027.2,020.0,15.8,0002.0,0016.03,0023.99,0015.11
2024-01-20 20:37:00,SystemResetWarning,0825.0,4.99,000.00,018.8,018.0,000.0,027.2,020.0,15.9,0001.8,0016.06,0024.01,0015.14
2024-01-20 20:38:00,SystemResetWarning,0825.0,5.00,000.00,018.8,018.0,000.0,027.2,020.0,15.9,0001.7,0016.06,0024.15,0015.17
2024-01-20 20:39:00,SystemResetWarning,0825.0,4.99,000.00,018.8,018.0,000.0,027.2,020.0,15.8,0001.6,0016.13,0024.46,0015.22
2024-01-20 20:40:00,SystemResetWarning,0825.0,4.99,000.00,018.8,018.1,000.0,027.2,020.0,15.6,0001.5,0016.19,0024.81,0015.27
2024-01-20 20:41:00,SystemResetWarning,0825.0,4.99,000.00,018.8,018.1,000.0,027.2,020.0,15.6,0001.1,0016.22,0024.91,0015.31
2024-01-20 20:42:00,SystemResetWarning,0825.0,5.00,000.00,018.8,018.1,000.0,027.2,020.0,15.7,0001.2,0016.28,0025.39,0015.33
2024-01-20 20:43:00,SystemResetWarning,0825.0,5.00,000.00,018.8,018.1,000.0,027.2,020.0,15.6,0001.0,0016.30,0025.28,0015.36
2024-01-20 20:44:00,SystemResetWarning,0825.0,5.01,000.00,018.8,018.1,000.0,027.2,020.0,15.8,0001.1,0016.38,0025.31,0015.46
2024-01-20 20:45:00,SystemResetWarning,0825.0,5.01,000.00,018.8,018.2,000.0,027.2,020.0,15.9,0001.3,0016.40,0024.47,0015.50
2024-01-20 20:46:00,SystemResetWarning,0824.9,5.00,000.00,018.8,018.2,000.0,027.2,020.0,15.9,0001.4,0016.41,0024.32,0015.51
2024-01-20 20:47:00,SystemResetWarning,0824.9,4.99,000.00,018.8,018.2,000.0,027.2,020.0,15.7,0001.1,0016.45,0024.59,0015.54
2024-01-20 20:48:00,SystemResetWarning,0824.9,4.99,000.00,018.8,018.2,000.0,027.2,020.0,15.8,0001.0,0016.50,0024.61,0015.59
2024-01-20 20:49:00,SystemResetWarning,0824.9,5.00,000.00,018.8,018.2,000.0,027.2,020.0,15.7,0001.1,0016.50,0024.65,0015.63
2024-01-20 20:50:00,SystemResetWarning,0824.9,5.01,000.00,018.8,018.2,000.0,027.2,020.0,15.9,0001.3,0016.50,0024.82,0015.66
2024-01-20 20:51:00,SystemResetWarning,0824.9,5.01,000.00,018.8,018.2,000.0,027.2,020.0,15.9,0001.4,0016.49,0025.05,0015.70
2024-01-20 20:52:00,SystemResetWarning,0824.9,4.99,000.00,018.8,018.3,000.0,027.2,020.1,15.8,0001.7,0016.48,0024.95,0015.71
2024-01-20 20:53:00,SystemResetWarning,0824.8,4.99,000.00,018.8,018.3,000.0,027.2,020.1,15.9,0001.7,0016.46,0024.77,0015.70
2024-01-20 20:54:00,SystemResetWarning,0824.9,4.99,000.00,018.8,018.3,000.0,027.2,020.1,15.8,0001.7,0016.45,0024.29,0015.63
2024-01-20 20:55:00,SystemResetWarning,0824.9,5.01,000.00,018.8,018.3,000.0,027.2,020.1,15.8,0001.5,0016.33,0024.46,0015.51
2024-01-20 20:56:00,SystemResetWarning,0824.9,5.01,000.00,018.9,018.3,000.0,027.2,020.1,15.9,0001.6,0016.28,0024.86,0015.42
2024-01-20 20:57:00,SystemResetWarning,0824.9,5.01,000.00,018.9,018.3,000.0,027.2,020.2,16.1,0001.6,0016.20,0024.20,0015.36
2024-01-20 20:58:00,SystemResetWarning,0824.9,5.00,000.00,018.9,018.4,000.0,027.2,020.2,15.8,0001.9,0016.14,0023.77,0015.31
2024-01-20 20:59:00,SystemResetWarning,0824.9,5.00,000.00,018.9,018.4,000.0,027.2,020.2,15.7,0001.8,0016.08,0024.18,0015.25
